Regional Weather Roundup
Issued by NWS

Home | Current Version | Previous Version | Text Only | Print | Product List | Glossary On
Versions: 1 2 3 4 5 6 7 8 9 10 11 12 13 14 15 16 17 18 19 20 21 22 23 24 25 26 27 28 29 30 31 32 33 34 35 36 37 38 39 40 41 42 43 44 45 46 47 48 49 50
000
ASUS43 KOAX 281110
RWRNE

WEATHER ROUNDUP FOR NEBRASKA
NATIONAL WEATHER SERVICE OMAHA NE
500 AM CST SUN DEC 28 2014

NOTES: SATELLITE DATA IS BEING USED TO AUGMENT CLOUD COVER ABOVE
       12000 FEET.
       "FAIR" INDICATES FEW OR NO CLOUDS BELOW 12,000 FEET WITH NO
       SIGNIFICANT WEATHER AND/OR OBSTRUCTIONS TO VISIBILITY.

  * THESE STATIONS DO NOT REPORT WEATHER SUCH AS RAIN...SNOW OR FOG.

NEZ001>004-019>022-054>056-281200-
NEBRASKA PANHANDLE

CITY           SKY/WX    TMP DP  RH WIND       PRES   REMARKS
SCOTTSBLUFF    PTCLDY    -1  -5  82 E3        29.98F
ALLIANCE       PTCLDY    -5  -8  87 E3        29.97F
CHADRON        PTCLDY     4  -1  80 W10       29.99F WCI -11
KIMBALL        MOCLDY     2  -3  78 W5        29.93F WCI  -8
SIDNEY         PTCLDY    -3  -8  79 W7        29.98F WCI -16
$$

NEZ057>060-069>072-079>082-281200-
SOUTHWEST NEBRASKA

CITY           SKY/WX    TMP DP  RH WIND       PRES   REMARKS
NORTH PLATTE   PTCLDY    -2  -6  83 NW3       30.07F
IMPERIAL       PTCLDY     3  -3  76 W5        30.06F WCI  -6
LEXINGTON      PTCLDY     2  -1  85 W6        30.08F WCI  -9
MCCOOK         PTCLDY     5   1  83 W9        30.09F WCI  -9
OGALLALA       PTCLDY     0  -4  84 W12       30.05S WCI -17
$$

NEZ005>010-023>029-035>040-094-281200-
NORTH CENTRAL NEBRASKA

CITY           SKY/WX    TMP DP  RH WIND       PRES   REMARKS
VALENTINE      PTCLDY     1  -3  83 W6        30.03F WCI -10
AINSWORTH      PTCLDY     6   2  82 W6        30.03F WCI  -4
BROKEN BOW     PTCLDY     8   1  73 CALM      30.05F
O`NEILL        PTCLDY     8   4  85 W3        30.06F
ORD            PTCLDY     7   4  87 W5        30.07F WCI  -2
THEDFORD       PTCLDY    10   5  81 SW7       30.03F WCI  -2
$$

NEZ041-046>049-061>064-073>077-083>087-281200-
SOUTH CENTRAL NEBRASKA

CITY           SKY/WX    TMP DP  RH WIND       PRES   REMARKS
GRAND ISLAND     N/A     13   7  77 W10       30.11F WCI   0
AURORA         CLEAR     11   7  83 NW3       30.10F
HASTINGS       CLEAR     13   8  81 W7        30.09F WCI   3
HEBRON         CLEAR     15  11  83 CALM      30.15F
HOLDREGE       PTCLDY    12   6  77 CALM      30.08F
KEARNEY *      CLEAR     10   3  72 SW8       30.09F WCI  -1
YORK           CLEAR     10   7  85 W7        30.11F WCI   0
$$

NEZ011>018-030>034-042>045-281200-
NORTHEAST NEBRASKA

CITY           SKY/WX    TMP DP  RH WIND       PRES   REMARKS
NORFOLK        PTCLDY     7   4  87 W3        30.09S
ALBION         PTCLDY     7   1  79 W5        30.09F WCI  -2
BLAIR          CLEAR     17  13  85 S5        30.11F WCI  10
COLUMBUS *     CLEAR     10   1  67 W6        30.12F WCI   1
FREMONT        CLEAR     15  12  88 S3        30.12F
TEKAMAH        CLEAR     12   8  84 S6        30.13F WCI   3
WAYNE          PTCLDY     5   2  86 CALM      30.10F
$$

NEZ050>053-065>068-078-088>093-281200-
SOUTHEAST NEBRASKA

CITY           SKY/WX    TMP DP  RH WIND       PRES   REMARKS
LINCOLN        CLEAR     18  12  77 SW6       30.16F WCI  10
OMAHA EPPLEY   CLEAR     17  13  84 SE7       30.16F WCI   8
BEATRICE       CLEAR     14  11  89 S6        30.16F WCI   5
FALLS CITY     CLEAR     17  12  80 S5        30.18F WCI  10
NEBRASKA CITY  CLEAR     18  13  82 SW9       30.15F WCI   6
PLATTSMOUTH    CLEAR     15  12  86 S7        30.14F WCI   5
$$

NEZ044-045-051>053-067-281200-
OMAHA AREA

CITY           SKY/WX    TMP DP  RH WIND       PRES   REMARKS
OMAHA EPPLEY   CLEAR     17  13  84 SE7       30.16F WCI   8
BLAIR          CLEAR     17  13  85 S5        30.11F WCI  10
FREMONT        CLEAR     15  12  88 S3        30.12F
MILLARD        CLEAR     17  14  88 CALM      30.14F
OFFUTT AFB     CLEAR     15  11  86 S3        30.14F
PLATTSMOUTH    CLEAR     15  12  86 S7        30.14F WCI   5
WAHOO          FAIR      14   9  80 CALM      30.13S
$$


USA.gov is the U.S. government's official web portal to all federal, state and local government web resources and services.